Istanbul, Turkey

3:26 AM EEST on September 29, 2016 (GMT +0300)
Ataturk

Weather History for LTBA - March, 2014

Change the Weather History Date:

Thursday, March 27, 2014

  Actual Average Record
Temperature  
Mean Temperature 57 °F -  
Max Temperature 64 °F 52 °F 74 °F (2015)
Min Temperature 50 °F 41 °F 33 °F (2006)
Degree Days  
Heating Degree Days 8    
Growing Degree Days 7 (Base 50)    
Moisture  
Dew Point 48 °F    
Average Humidity 72    
Maximum Humidity 100    
Minimum Humidity 45    
Precipitation  
Precipitation 0.00 in - - ()
Sea Level Pressure  
Sea Level Pressure 30.03 in    
Wind  
Wind Speed 4 mph ()    
Max Wind Speed 9 mph    
Max Gust Speed -    
Visibility 6.0 miles    
Events Rain    
Averages and records for this station are not official NWS values.
T = Trace of Precipitation, MM = Missing Value Source: Averaged Metar Reports

Daily Weather History Graph

Daily Weather History Graph

Search for Another Location

Airport or City:

Trip Planner

Search our weather history database for the weather conditions in past years. The results will help you decide how hot, cold, wet, or windy it might be!

Date:

Astronomy

Mar. 27, 2014 Rise Set
Actual Time 5:56 AM EET 6:24 PM EET
Civil Twilight 5:29 AM EET 6:51 PM EET
Nautical Twilight 4:57 AM EET 7:24 PM EET
Astronomical Twilight 4:23 AM EET 7:57 PM EET
Moon 3:36 AM EET (3/27) 2:47 PM EET (3/27)
Length of Visible Light 13h 22m
Length of Day
12h 27m
Waning Crescent, 15% of the Moon is Illuminated
Mar 27
Waning Crescent
Mar 30
New
Apr 7
First Quarter
Apr 15
Full
Apr 22
Last Quarter

Hourly Weather History & Observations

Time (EET) Temp. Dew Point Humidity Pressure Visibility Wind Dir Wind Speed Gust Speed Precip Events Conditions
12:20 AM 51.8 °F 48.2 °F 88% 30.06 in 6.2 mi Variable 2.3 mph - N/A Rain Light Rain Showers
12:50 AM 51.8 °F 48.2 °F 88% 30.06 in 3.7 mi West 4.6 mph - N/A Rain Light Rain Showers
1:20 AM 51.8 °F 50.0 °F 94% 30.06 in 4.3 mi WSW 1.2 mph - N/A Rain Light Rain Showers
1:50 AM 53.6 °F 50.0 °F 88% 30.04 in 6.2 mi SSE 6.9 mph - N/A Rain Light Rain Showers
2:00 AM 53 °F 49 °F 84% 30.06 in 6 mi SSE 6.9 mph - - Rain Light Rain Showers
2:20 AM 50.0 °F 48.2 °F 94% 30.04 in 6.2 mi East 3.5 mph - N/A Rain Light Rain Showers
2:50 AM 50.0 °F 48.2 °F 94% 30.04 in 6.2 mi ESE 3.5 mph - N/A Rain Light Rain Showers
3:20 AM 50.0 °F 50.0 °F 100% 30.04 in 3.7 mi Calm Calm - N/A Rain Light Rain Showers
3:50 AM 51.8 °F 50.0 °F 94% 30.04 in 5.0 mi SSE 4.6 mph - N/A Rain Light Rain Showers
4:20 AM 51.8 °F 50.0 °F 94% 30.04 in 6.2 mi South 5.8 mph - N/A Rain Light Rain Showers
4:50 AM 51.8 °F 50.0 °F 94% 30.04 in 6.2 mi SE 4.6 mph - N/A Rain Light Rain Showers
5:00 AM 51 °F 50 °F 94% 30.06 in 6 mi SE 4.6 mph - - Rain Light Rain Showers
5:20 AM 51.8 °F 50.0 °F 94% 30.04 in 6.2 mi SE 5.8 mph - N/A   Mostly Cloudy
5:50 AM 50.0 °F 48.2 °F 94% 30.04 in 6.2 mi SE 6.9 mph - N/A   Mostly Cloudy
6:20 AM 50.0 °F 48.2 °F 94% 30.04 in 6.2 mi SSE 9.2 mph - N/A   Mostly Cloudy
6:50 AM 51.8 °F 50.0 °F 94% 30.04 in 6.2 mi SE 9.2 mph - N/A   Scattered Clouds
7:20 AM 51.8 °F 50.0 °F 94% 30.06 in 6.2 mi SSE 8.1 mph - N/A   Scattered Clouds
7:50 AM 53.6 °F 48.2 °F 82% 30.06 in 6.2 mi SE 6.9 mph - N/A   Mostly Cloudy
8:00 AM 53 °F 48 °F 78% 30.07 in 6 mi SE 6.9 mph - -   Partly Cloudy
8:20 AM 55.4 °F 50.0 °F 82% 30.06 in 6.2 mi ESE 6.9 mph - N/A   Mostly Cloudy
8:50 AM 55.4 °F 50.0 °F 82% 30.06 in 6.2 mi ESE 6.9 mph - N/A   Mostly Cloudy
9:20 AM 57.2 °F 48.2 °F 72% 30.06 in 6.2 mi East 6.9 mph - N/A   Scattered Clouds
9:50 AM 59.0 °F 48.2 °F 67% 30.06 in 6.2 mi SSE 6.9 mph - N/A   Scattered Clouds
10:20 AM 60.8 °F 48.2 °F 63% 30.06 in 6.2 mi South 5.8 mph - N/A   Scattered Clouds
10:50 AM 59.0 °F 46.4 °F 63% 30.06 in 6.2 mi SSW 5.8 mph - N/A   Scattered Clouds
11:00 AM 59 °F 48 °F 57% 30.07 in 6 mi SSW 5.8 mph - -   Partly Cloudy
11:20 AM 59.0 °F 48.2 °F 67% 30.06 in 6.2 mi SW 4.6 mph - N/A   Scattered Clouds
11:50 AM 60.8 °F 48.2 °F 63% 30.06 in 6.2 mi SW 6.9 mph - N/A   Scattered Clouds
12:20 PM 60.8 °F 48.2 °F 63% 30.06 in 6.2 mi SW 5.8 mph - N/A   Scattered Clouds
12:50 PM 60.8 °F 48.2 °F 63% 30.06 in 6.2 mi WSW 5.8 mph - N/A   Scattered Clouds
1:20 PM 60.8 °F 46.4 °F 59% 30.04 in 6.2 mi West 4.6 mph - N/A   Scattered Clouds
1:50 PM 60.8 °F 46.4 °F 59% 30.04 in 6.2 mi Calm Calm - N/A   Scattered Clouds
2:00 PM 62 °F 46 °F 45% 30.06 in 6 mi Calm Calm - -   Partly Cloudy
2:20 PM 62.6 °F 46.4 °F 55% 30.04 in 6.2 mi Variable 2.3 mph - N/A   Scattered Clouds
2:50 PM 64.4 °F 48.2 °F 56% 30.04 in 6.2 mi Variable 2.3 mph - N/A   Scattered Clouds
3:20 PM 62.6 °F 48.2 °F 59% 30.01 in 6.2 mi Variable 2.3 mph - N/A   Scattered Clouds
3:50 PM 64.4 °F 48.2 °F 56% 30.01 in - Calm Calm - N/A   Clear
4:20 PM 64.4 °F 48.2 °F 56% 30.01 in - Calm Calm - N/A   Clear
4:50 PM 62.6 °F 46.4 °F 55% 30.01 in - Calm Calm - N/A   Clear
5:00 PM 63 °F 47 °F 46% 30.01 in 6 mi Calm Calm - -  
5:20 PM 60.8 °F 48.2 °F 63% 30.01 in - Calm Calm - N/A   Clear
5:50 PM 60.8 °F 46.4 °F 59% 30.01 in - WSW 4.6 mph - N/A   Clear
6:20 PM 59.0 °F 50.0 °F 72% 30.01 in - Variable 1.2 mph - N/A   Clear
6:50 PM 59.0 °F 48.2 °F 67% 29.98 in - East 5.8 mph - N/A   Clear
7:20 PM 60.8 °F 48.2 °F 63% 29.98 in - Variable 8.1 mph - N/A   Clear
7:50 PM 62.6 °F 48.2 °F 59% 29.98 in - East 6.9 mph - N/A   Clear
8:00 PM 62 °F 49 °F 52% 29.99 in 6 mi East 6.9 mph - -   Partly Cloudy
8:20 PM 62.6 °F 50.0 °F 63% 29.98 in - Variable 8.1 mph - N/A   Clear
8:50 PM 60.8 °F 48.2 °F 63% 29.98 in - East 9.2 mph - N/A   Clear
9:20 PM 60.8 °F 48.2 °F 63% 29.98 in - Variable 8.1 mph - N/A   Clear
9:50 PM 60.8 °F 48.2 °F 63% 29.95 in - East 8.1 mph - N/A   Clear
10:20 PM 59.0 °F 48.2 °F 67% 29.95 in - NE 6.9 mph - N/A   Clear
10:50 PM 59.0 °F 48.2 °F 67% 29.95 in - NE 6.9 mph - N/A   Clear
11:00 PM 58 °F 47 °F 58% 29.95 in 6 mi NE 6.9 mph - -   Partly Cloudy
11:20 PM 59.0 °F 48.2 °F 67% 29.92 in - ENE 5.8 mph - N/A   Clear
11:50 PM 59.0 °F 48.2 °F 67% 29.92 in - ENE 5.8 mph - N/A   Clear